Location: Keppel Henge
(44.7900°N, 80.9447°W)
Time: 07:48:54
(UTC-04:00)

Tiangong 1 - Pass Details

Date: 10 October 2017
Orbit: 292 x 319 km, 42.8° (Epoch: 22 October)

Event Time Altitude Azimuth Distance (km) Brightness Sun altitude
Rises 20:53:54 0° 271° (W) 2,035 6.1 -23.1°
Reaches altitude 10° 20:55:56 10° 264° (W) 1,198 4.5 -23.5°
Enters shadow 20:56:47 17° 257° (WSW) 871 3.6 -23.6°
